Regional Weather Roundup
Issued by NWS

Home | Current Version | Previous Version | Graphics & Text | Print | Product List | Glossary On
Versions: 1 2 3 4 5 6 7 8 9 10 11 12 13 14 15 16 17 18 19 20 21 22 23 24 25 26 27 28 29 30 31 32 33 34 35 36 37 38 39 40 41 42 43 44 45 46 47 48 49 50
064
ASUS43 KMKX 261021
RWRWI

WISCONSIN REGIONAL WEATHER ROUNDUP
NATIONAL WEATHER SERVICE MILWAUKEE/SULLIVAN WI
400 AM CST SUN FEB 26 2017

NOTE: "FAIR" INDICATES FEW OR NO CLOUDS BELOW 12,000 FEET WITH NO
SIGNIFICANT WEATHER AND/OR OBSTRUCTIONS TO VISIBILITY.

WIZ001-002-006>008-014>016-023>028-261100-
NORTHWEST WISCONSIN

CITY           SKY/WX    TMP DP  RH WIND       PRES   REMARKS
SUPERIOR ARPT  MIX PCPN  26  24  94 SW5       29.68F WCI  20
ASHLAND        CLOUDY    25  18  74 S14       29.69F WCI  13
HAYWARD        FLURRIES  23  15  71 S10       29.70F WCI  12
SIREN          CLOUDY    25  19  78 SW10      29.71F WCI  15
CUMBERLAND     CLOUDY    23  16  74 SW10      29.71F WCI  12
RICE LAKE      CLOUDY    21  16  79 S7        29.74F WCI  13
CHETEK         CLOUDY    22  16  78 S5        29.75S WCI  15
LADYSMITH      CLOUDY    22  16  79 S12       29.75F WCI  10
EAU CLAIRE     CLOUDY    23  16  74 S7        29.76F WCI  15
MENOMONIE      MOCLDY    24  16  73 S8        29.76F WCI  15
NEW RICHMOND   CLOUDY    24  16  73 S10       29.74S WCI  13
OSCEOLA        CLOUDY    26  18  72 S8        29.76F WCI  17
$$

WIZ003>005-009-010-017-018-261100-
NORTH CENTRAL WISCONSIN

CITY           SKY/WX    TMP DP  RH WIND       PRES   REMARKS
MANITOWISH WTR CLOUDY    18  15  86 S12       29.69F WCI   5
ARBOR VITAE    CLEAR     19  15  82 S9          N/A  WCI   8
WOODRUFF       CLEAR     19  15  82 S9          N/A  WCI   8
RHINELANDER    MOCLDY    17  11  77 S8        29.73F WCI   7
EAGLE RIVER    CLEAR     17  11  78 SW7       29.72F WCI   7
LAND O LAKES   MOCLDY    18  13  82 SW6       29.71F WCI   9
PHILLIPS       CLOUDY    19  15  84 S8        29.71F WCI   9
TOMAHAWK       FLURRIES  18  13  82 CALM      29.75F
MEDFORD        CLOUDY    19  14  81 S9        29.75F WCI   8
MERRILL        NOT AVBL
$$

WIZ029-030-035-036-043>047-261100-
CENTRAL WISCONSIN

CITY           SKY/WX    TMP DP  RH WIND       PRES   REMARKS
WAUSAU         LGT SNOW  19  15  84 S12       29.78F FOG     WCI   7
MOSINEE        CLOUDY    19  18  93 S7        29.80F WCI  10
MARSHFIELD     CLOUDY    20  13  74 S12       29.78F WCI   8
STEVENS POINT  CLOUDY    19  14  80 S7        29.83F WCI   9
WAUPACA        CLOUDY    22  15  75 S6        29.88F WCI  15
WAUTOMA        FLURRIES  20  15  81 S5        29.89F WCI  13
WISC RAPIDS    CLOUDY    21  15  78 S8        29.85F WCI  11
CAMP DOUGLAS   CLOUDY    23  17  77 SE9       29.84F WCI  13
$$

WIZ011>013-019>022-031-037>040-048>050-261100-
NORTHEAST WISCONSIN

CITY           SKY/WX    TMP DP  RH WIND       PRES   REMARKS
ANTIGO         CLOUDY    18  14  83 SW12      29.78F WCI   6
SHAWANO        FLURRIES  20  15  82 CALM      29.87F
OCONTO         CLOUDY    19  12  73 SW8       29.89S WCI   9
STURGEON BAY   CLOUDY    21  14  74 SW15G23   29.89F WCI   8
GREEN BAY      LGT SNOW  21  18  88 SW9       29.90F FOG     WCI  11
MANITOWOC      CLOUDY    21  14  74 W12       29.93S WCI   9
APPLETON       CLOUDY    21  16  79 S8        29.88F WCI  12
CLINTONVILLE   CLOUDY    21  16  79 S7        29.87F WCI  13
OSHKOSH        CLOUDY    20  13  74 S8        29.90F WCI  10
$$

WIZ032>034-041-042-053>061-261100-
SOUTHWEST WISCONSIN

CITY           SKY/WX    TMP DP  RH WIND       PRES   REMARKS
LA CROSSE      MOCLDY    28  19  69 S12       29.82F WCI  18
SPARTA         CLOUDY    25  18  76 S7        29.84F WCI  17
VIROQUA        CLOUDY    23  19  83 S8        29.82F WCI  14
BOSCOBEL       CLOUDY    28  18  66 S6        29.88F WCI  22
PRAIRIE DU CHI CLOUDY    29  17  59 S8        29.87F WCI  21
PLATTEVILLE    CLOUDY    26  22  82 S9        29.90F WCI  17
$$

WIZ056-057-062-063-064-067-068-261100-
SOUTH CENTRAL WISCONSIN

CITY           SKY/WX    TMP DP  RH WIND       PRES   REMARKS
REEDSBURG      CLOUDY    24  17  77 S12       29.88F WCI  12
BARABOO/DELLS  CLOUDY    23  17  78 S8        29.88F WCI  14
LONE ROCK      CLOUDY    26  17  68 CALM      29.90F
MINERAL POINT  MOCLDY    28  23  80 S3        29.87F
MADISON        CLOUDY    23  17  78 S6        29.92F WCI  16
MIDDLETON      CLOUDY    25  19  78 SW3       29.91F
WATERTOWN      MOCLDY    19  17  88 SE5       29.93F WCI  13
MONROE         CLOUDY    27  19  74 S14       29.91F WCI  15
JANESVILLE     CLOUDY    27  19  74 S9        29.95F WCI  17
$$

WIZ051-052-058>065-066-070>072-261100-
SOUTHEAST WISCONSIN

CITY           SKY/WX    TMP DP  RH WIND       PRES   REMARKS
MILWAUKEE      CLOUDY    24  15  68 S6        29.97F WCI  17
WAUKESHA       CLOUDY    19  14  79 S3        29.96F
MILWAUKEE/TIMM CLOUDY    21  14  73 S5        29.97F WCI  15
RACINE         CLOUDY    23  16  74 SW7       30.01S WCI  15
KENOSHA        CLOUDY    24  17  74 SW7       30.00S WCI  16
FOND DU LAC    CLOUDY    20  12  71 S6        29.92F WCI  12
SHEBOYGAN      PTCLDY    20  12  71 SW9       29.94S WCI   9
WEST BEND      MOCLDY    21  18  86 SW3       29.94F
JUNEAU         CLOUDY    21  16  81 S5        29.93F WCI  14
$$

LSZ147-162-261100-
LAKE SUPERIOR

STATION/POSITION TIME  TEMP    WIND        PRES    WAVE
                       AIR SEA DIR/SP/G            HT/PER
                 (UTC) (F)     (DEG/KT/KT) (MB)    (FT/S)
DEVILS ISLAND    1000   27     210/ 11/ 14 1005.7F
PORT WING        0940   26     200/  8/ 12 1005.4F
SAXON HARBOR     0940   26     200/  9/ 15 1005.8F
$$

LMZ867-665-643>646-261100-
LAKE MICHIGAN

STATION/POSITION TIME  TEMP    WIND        PRES    WAVE
                       AIR SEA DIR/SP/G            HT/PER
                 (UTC) (F)     (DEG/KT/KT) (MB)    (FT/S)
NORTHPORT PIER   0940   22        CALM     1011.5S
SISTER BAY       0920   21        CALM       N/A
ALGOMA LAKESHORE 0856          230/  8/ 15   N/A
KEWAUNEE LAKESHO 0954   22     240/  7/ 13 1012.7R
SHEBOYGAN LAKESH 1000   22     220/  9/ 10 1015.1F
PORT WASHINGTON  0940   22     230/  5/  9 1015.9S
MILWAUKEE LAKESH 0950   24     220/  8/  9   N/A
KENOSHA   LAKESH 1000   24     210/  3/  9 1016.3
$$

TC  - TEMPERATURE IN CELSIUS
VSB - VISIBILITY IN STATUTE MILES
WCI - WIND CHILL INDEX
HX  - HEAT INDEX





USA.gov is the U.S. government's official web portal to all federal, state and local government web resources and services.